Miscellaneous Local Product
Issued by NWS North Platte, NE

Home | Current Version | Previous Version | Graphics & Text | Print | Product List | Glossary On
Versions: 1 2 3 4 5 6 7 8 9 10 11 12 13 14 15 16 17 18 19 20 21 22 23 24 25 26 27 28 29 30 31 32 33 34 35 36 37 38 39 40 41 42 43 44 45 46 47 48 49 50
000
AXUS43 KLBF 281210
MISLBF


WESTERN AND NORTH CENTRAL NEBRASKA HOURLY WEATHER ROUNDUP
NATIONAL WEATHER SERVICE NORTH PLATTE NE
700 AM CDT SAT MAR 28 2015

***STATIONS NOT REPORTING VARIABLES SUCH AS SKY/WEATHER OR
PRESSURE ARE PROVIDED BY THE NEBRASKA DEPARTMENT OF
ROADS...RAWS...AND APRS NETWORKS...AND ARE NOT UNDER
NATIONAL WEATHER SERVICE QUALITY CONTROL***

...OBSERVATIONS IN AND NEAR THE EASTERN PANHANDLE OF NEBRASKA...

CITY           SKY/WX    TMP DP  RH WIND       PRES   REMARKS
PINE RIDGE     CLEAR     28  25  88 CALM      29.95S
CHADRON        CLEAR     32  28  85 SW5       29.95S WCI  27
ALLIANCE       CLEAR     30  25  81 CALM      29.97S
SIDNEY         CLEAR     38  27  64 W13       30.00S WCI  30
WHITECLAY        N/A     30  27  86 E7          N/A  WCI  23
CRESCENT LAKE    N/A     38  34  85 CALM        N/A
BIG SPRINGS      N/A     37  31  79 W3          N/A
$$

...OBSERVATIONS IN NORTH CENTRAL NEBRASKA...

CITY           SKY/WX    TMP DP  RH WIND       PRES   REMARKS
VALENTINE      CLEAR     27  24  89 W3        29.98R
THEDFORD       CLEAR     31  30  94 W3        29.99S
AINSWORTH      CLEAR     29  27  94 E5        29.98S WCI  24
O`NEILL        CLEAR     30  27  90 SE5       30.02R WCI  25
ORD            CLEAR     22  19  89 CALM      30.02R
BROKEN BOW     CLEAR     26  25  96 CALM      29.98R
BROWNLEE         N/A     40  31  69 CALM        N/A
SPRINGVIEW       N/A     26  24  91 CALM        N/A
BREWSTER         N/A     29  29  99 CALM        N/A
ROSE             N/A     38  34  87 NE6         N/A  WCI  33
NEWPORT          N/A     32  30  93 CALM        N/A
SARGENT          N/A     26  24  92 CALM        N/A
COMSTOCK         N/A     30  28  93 CALM        N/A
EWING            N/A     28  26  91 CALM        N/A
$$

...OBSERVATIONS IN SOUTHWEST NEBRASKA AND FAR NORTHEAST COLORADO...

CITY           SKY/WX    TMP DP  RH WIND       PRES   REMARKS
WRAY           FAIR      36  32  83 W7        30.01R WCI  31
HOLYOKE        FAIR      37  30  75 W10       30.00R WCI  30
IMPERIAL         N/A     35  28  75 N3        29.99R
OGALLALA       CLEAR     31  29  91 W5        29.99R WCI  26
NORTH PLATTE   CLEAR     27  25  92 CALM      30.00R
MCCOOK         CLEAR     35  31  85 W9        29.97R WCI  28
LEXINGTON      CLEAR     29  26  88 S3        30.00R
PAXTON           N/A     37  31  79 CALM        N/A
SUTHERLAND       N/A     33  30  92 W3          N/A
BRADY            N/A     30  26  86 CALM        N/A
GOTHENBURG       N/A     33  28  81 W3          N/A
CALLAWAY         N/A     34  30  86 CALM        N/A
$$

...NORTH PLATTE AREA...

CITY           SKY/WX    TMP DP  RH WIND       PRES   REMARKS
AIRPORT        CLEAR     27  25  92 CALM      30.00R
DOWNTOWN         N/A     33  30  90 CALM        N/A
$$

...SOME WEATHER OBSERVATIONS FROM AROUND THE REGION...

CITY           SKY/WX    TMP DP  RH WIND       PRES   REMARKS
DENVER         CLEAR     47  29  49 SW12      30.08R
LARAMIE        PTCLDY    34  22  61 SW8       30.14S WCI  27
CHEYENNE       CLEAR     46  22  38 NW10      30.09R
SCOTTSBLUFF    CLEAR     32  26  78 W6        29.99S WCI  26
RAPID CITY     CLEAR     37  30  75 CALM      29.92S
PIERRE         CLEAR     23  22  96 E5        29.98S WCI  17
WINNER         FAIR      32  27  81 S6        29.99R WCI  26
SIOUX FALLS    PTCLDY    29  25  85 SE9       30.10S WCI  20
OMAHA          MOCLDY    34  26  72 SE12      30.13R WCI  25
GRAND ISLAND   CLEAR     29  25  85 SE8       30.04R WCI  21
KANSAS CITY    CLOUDY    36  28  73 E13       30.13R WCI  27
WICHITA        PTCLDY    39  30  70 S9        30.00R WCI  33
HAYS           CLEAR     36  27  69 CALM      29.96R
LIBERAL        CLEAR     46  30  53 NW8       30.02R
GOODLAND       CLEAR     40  33  76 W6        30.01R
$$



USA.gov is the U.S. government's official web portal to all federal, state and local government web resources and services.